Погода в Шевлякове

Россия / Московская область     56°23′54″N   36°51′45″E
темп.,
°C
ветер,
м/с
пор.,
м/с
влажн.,
%
обл.,
%
осадки,
мм/ч
давл.,
гПа
погр.,
м
13 апреля, вт
вт1300:00+8вюв3887100 0.0 1027269
03:00+7вюв389656 0.0 1025201
06:00+8ююв3128974 0.0 1024297
09:00+14ю41065100 0.0 1024407
12:00+18ю5852100 0.0 1023737
15:00+20ю584381 0.0 10221411
18:00+17ююв384962 0.0 1022315
21:00+12ююв3116494 0.0 1022188
14 апреля, ср
ср1400:00+11ююв313681 0.0 1021297
03:00+10ююв412664 0.0 1020270
06:00+8ююв311746 0.0 1020214
09:00+14ю485974 0.0 1019352
12:00+17ю4652100 0.0 1019906
15:00+19ююв4642100 0.0 10181700
18:00+16ююв2647100 0.0 1017176
21:00+12ююв275798 0.0 1018134
15 апреля, чт
чт1500:00+10ююв2265100 0.0 101828
03:00+9в116983 0.0 101810
06:00+8в2273100 0.0 101813
09:00+12в2460100 0.0 1018226
12:00+16всв3446100 0.0 1018710
15:00+17св3442100 0.0 10181317
18:00+14ссв51067100 0.0 1018527
21:00
16 апреля, пт
пт1600:00+8св51187100 0.0 1020473
03:00+6св51291100 0.0 1021454
06:00+5св5129196 0.0 1021452
09:00+7св598079 0.0 1022559
12:00+12всв586297 0.0 1022920
15:00+14всв675492 0.0 10221259
18:00+12св586088 0.0 10231091
21:00+8св513536 0.1 1025612
17 апреля, сб
сб1700:00+6св513588 0.0 1025526
03:00+4св412705 0.0 1026400
06:00+3св4127652 0.0 1028368
09:00+7всв51056100 0.0 1029662
12:00+11всв58395 0.0 10291354
15:00+12св57355 0.0 10291582
18:00+10всв48430 0.0 10291445
21:00+5св28670 0.0 1031202